Location: Kunchanapalle
(16.4623°N, 80.6176°E)
Time: 13:31:40
(UTC+00:00)

GPS 2-04 Rocket1 - Pass Details

Date: 13 August 2020
Orbit: 418 x 548 km, 35.6° (Epoch: 24 September)

Event Time Altitude Azimuth Distance (km) Brightness Sun altitude
Exits shadow 23:41:17 14° 255° (WSW) 1,308 4.1 -10.0°
Maximum altitude 23:44:05 50° 328° (NNW) 583 2.9 -9.4°
Drops below altitude 10° 23:47:41 10° 45° (NE) 1,619 6.3 -8.6°
Sets 23:49:58 0° 50° (NE) 2,523 7.7 -8.1°
